Location: Croisilles
(50.1998°N, 2.8793°E)
Time: 13:39:40
(UTC+00:00)

Cosmos 990 Rocket - Pass Details

Date: 21 January 2021
Orbit: 748 x 768 km, 74.0° (Epoch: 26 February)

Event Time Altitude Azimuth Distance (km) Brightness Sun altitude
Rises 18:50:18 0° 195° (SSW) 3,213 7.5 -23.0°
Reaches altitude 10° 18:52:41 10° 193° (SSW) 2,289 6.6 -23.4°
Maximum altitude 18:57:50 71° 110° (ESE) 804 3.8 -24.2°
Enters shadow 18:58:08 69° 84° (E) 813 3.8 -24.2°
